QPF
0.00 0.00 0.00 0.00 0.00 0.00 0.00 0.00 0.00 0.00 0.00 0.00 0.00 0.00 0.00 0.00 0.00 0.00 0.00 0.00 0.00 0.00 0.00 0.00 0.00 0.01 0.02 0.02 0.02 0.03 0.03 0.03 0.03 0.03 0.04 0.04 0.05 0.05
0.00 0.00 0.00 0.00 0.00 0.00 0.00 0.00 0.00 0.00 0.00 0.00 0.00 0.00 0.00 0.00 0.00 0.00 0.00 0.00 0.00 0.00 0.00 0.00 0.01 0.02 0.02 0.02 0.03 0.03 0.04 0.04 0.04 0.04 0.05 0.05 0.06 0.06
0.00 0.00 0.00 0.00 0.00 0.00 0.00 0.00 0.00 0.00 0.00 0.00 0.00 0.00 0.00 0.00 0.00 0.00 0.00 0.00 0.00 0.00 0.00 0.01 0.02 0.02 0.02 0.02 0.03 0.03 0.04 0.04 0.04 0.04 0.05 0.05 0.06 0.06
0.00 0.00 0.00 0.00 0.00 0.00 0.00 0.00 0.00 0.00 0.00 0.00 0.00 0.00 0.00 0.00 0.00 0.00 0.00 0.00 0.00 0.00 0.00 0.01 0.01 0.02 0.02 0.02 0.02 0.03 0.03 0.03 0.03 0.03 0.04 0.05 0.05 0.06
0.00 0.00 0.00 0.00 0.00 0.00 0.00 0.00 0.00 0.00 0.00 0.00 0.00 0.00 0.00 0.00 0.00 0.00 0.00 0.00 0.00 0.00 0.00 0.00 0.00 0.01 0.02 0.02 0.02 0.02 0.02 0.02 0.02 0.03 0.03 0.04 0.04 0.05
0.00 0.00 0.00 0.00 0.00 0.00 0.00 0.00 0.00 0.00 0.00 0.00 0.00 0.00 0.00 0.00 0.00 0.00 0.00 0.00 0.00 0.00 0.00 0.00 0.01 0.01 0.01 0.01 0.01 0.01 0.01 0.01 0.02 0.04 0.05 0.05 0.05 0.05
0.00 0.00 0.00 0.00 0.00 0.00 0.00 0.00 0.00 0.00 0.00 0.00 0.00 0.00 0.00 0.00 0.00 0.00 0.00 0.00 0.00 0.00 0.00 0.00 0.00 0.00 0.00 0.00 0.00 0.01 0.01 0.02 0.04 0.05 0.06 0.06 0.05 0.05
0.00 0.00 0.00 0.00 0.00 0.00 0.00 0.00 0.00 0.01 0.01 0.01 0.01 0.01 0.00 0.00 0.00 0.00 0.01 0.01 0.01 0.00 0.00 0.00 0.00 0.00 0.00 0.00 0.00 0.01 0.02 0.04 0.05 0.05 0.06 0.05 0.05 0.05
0.00 0.00 0.00 0.00 0.00 0.00 0.00 0.00 0.00 0.01 0.01 0.01 0.01 0.00 0.00 0.00 0.01 0.02 0.03 0.04 0.03 0.01 0.02 0.02 0.00 0.00 0.00 0.00 0.00 0.01 0.02 0.03 0.04 0.05 0.05 0.04 0.04 0.04
0.00 0.00 0.00 0.00 0.00 0.00 0.00 0.00 0.00 0.00 0.00 0.00 0.00 0.01 0.01 0.02 0.03 0.05 0.06 0.06 0.03 0.02 0.02 0.02 0.00 0.00 0.00 0.00 0.00 0.01 0.02 0.03 0.03 0.03 0.03 0.04 0.04 0.04
0.00 0.00 0.00 0.00 0.00 0.01 0.01 0.01 0.00 0.00 0.00 0.01 0.01 0.02 0.03 0.03 0.04 0.04 0.04 0.05 0.03 0.01 0.00 0.01 0.00 0.00 0.00 0.00 0.00 0.00 0.01 0.01 0.01 0.02 0.02 0.03 0.03 0.03
0.00 0.00 0.00 0.00 0.01 0.01 0.01 0.01 0.01 0.01 0.01 0.01 0.01 0.01 0.01 0.01 0.01 0.02 0.02 0.03 0.03 0.02 0.01 0.01 0.01 0.01 0.01 0.00 0.00 0.00 0.00 0.00 0.00 0.00 0.01 0.02 0.03 0.02
0.00 0.00 0.00 0.00 0.01 0.02 0.02 0.01 0.02 0.03 0.03 0.03 0.02 0.01 0.01 0.01 0.00 0.00 0.01 0.03 0.04 0.03 0.01 0.03 0.02 0.01 0.02 0.01 0.00 0.00 0.00 0.00 0.00 0.00 0.00 0.01 0.02 0.03
0.00 0.00 0.00 0.01 0.01 0.02 0.02 0.02 0.03 0.03 0.02 0.01 0.01 0.01 0.01 0.01 0.00 0.01 0.01 0.01 0.02 0.02 0.01 0.02 0.04 0.03 0.03 0.02 0.00 0.00 0.00 0.00 0.00 0.00 0.00 0.01 0.01 0.01
0.00 0.00 0.01 0.01 0.01 0.01 0.01 0.01 0.01 0.01 0.01 0.01 0.01 0.01 0.00 0.00 0.01 0.01 0.01 0.01 0.00 0.00 0.00 0.01 0.02 0.02 0.03 0.03 0.02 0.01 0.01 0.00 0.00 0.00 0.00 0.01 0.01 0.01
0.00 0.01 0.01 0.01 0.01 0.00 0.01 0.01 0.00 0.00 0.01 0.02 0.01 0.00 0.00 0.00 0.01 0.01 0.01 0.01 0.00 0.00 0.00 0.00 0.00 0.02 0.02 0.01 0.02 0.01 0.01 0.01 0.01 0.01 0.01 0.00 0.00 0.01
0.01 0.01 0.01 0.01 0.00 0.00 0.00 0.00 0.01 0.01 0.01 0.01 0.00 0.01 0.01 0.01 0.01 0.01 0.01 0.01 0.01 0.00 0.00 0.00 0.00 0.00 0.01 0.01 0.01 0.01 0.01 0.01 0.01 0.01 0.01 0.01 0.00 0.00
0.01 0.01 0.01 0.01 0.01 0.01 0.01 0.01 0.01 0.01 0.01 0.01 0.01 0.01 0.01 0.01 0.01 0.01 0.01 0.01 0.01 0.00 0.00 0.00 0.00 0.01 0.00 0.00 0.01 0.01 0.00 0.00 0.01 0.01 0.01 0.01 0.00 0.00
0.00 0.00 0.00 0.00 0.01 0.01 0.01 0.01 0.01 0.01 0.01 0.01 0.01 0.01 0.01 0.01 0.01 0.01 0.01 0.01 0.01 0.00 0.00 0.00 0.01 0.02 0.01 0.00 0.00 0.00 0.01 0.01 0.01 0.01 0.01 0.01 0.01 0.01
0.00 0.00 0.00 0.00 0.00 0.01 0.01 0.01 0.01 0.01 0.01 0.01 0.01 0.01 0.01 0.01 0.01 0.01 0.01 0.01 0.01 0.01 0.00 0.00 0.01 0.02 0.02 0.02 0.01 0.00 0.00 0.01 0.01 0.01 0.00 0.00 0.00 0.00
0.00 0.00 0.00 0.00 0.00 0.01 0.01 0.01 0.01 0.01 0.01 0.01 0.01 0.01 0.00 0.01 0.01 0.01 0.01 0.01 0.01 0.01 0.01 0.00 0.00 0.01 0.01 0.01 0.01 0.00 0.00 0.01 0.01 0.01 0.01 0.01 0.00 0.00
0.00 0.00 0.00 0.00 0.00 0.00 0.01 0.01 0.01 0.01 0.01 0.01 0.01 0.00 0.00 0.01 0.01 0.01 0.01 0.01 0.01 0.01 0.01 0.00 0.00 0.01 0.01 0.01 0.01 0.00 0.00 0.00 0.00 0.00 0.01 0.01 0.02 0.02
0.00 0.00 0.00 0.00 0.00 0.00 0.01 0.01 0.01 0.01 0.01 0.01 0.00 0.00 0.00 0.01 0.01 0.01 0.01 0.01 0.01 0.01 0.00 0.00 0.00 0.00 0.01 0.01 0.01 0.00 0.00 0.00 0.00 0.00 0.00 0.00 0.01 0.01
MSLP
1022.63 1023.06 1023.50 1023.93 1024.32 1024.63 1024.83 1024.92 1024.90 1024.78 1024.58 1024.32 1024.03 1023.71 1023.38 1023.03 1022.67 1022.29 1021.89 1021.48 1021.05 1020.60 1020.15 1019.68 1019.19 1018.68 1018.13 1017.55 1016.92 1016.26 1015.58 1014.91 1014.25 1013.62 1013.04 1012.50 1012.01 1011.53
1022.38 1022.76 1023.15 1023.54 1023.90 1024.20 1024.43 1024.56 1024.60 1024.56 1024.43 1024.23 1023.98 1023.68 1023.34 1022.97 1022.55 1022.12 1021.66 1021.19 1020.72 1020.25 1019.77 1019.30 1018.81 1018.29 1017.73 1017.12 1016.46 1015.75 1015.02 1014.29 1013.57 1012.89 1012.26 1011.68 1011.15 1010.65
1022.04 1022.37 1022.72 1023.05 1023.37 1023.66 1023.89 1024.06 1024.16 1024.19 1024.13 1024.01 1023.81 1023.55 1023.21 1022.82 1022.38 1021.89 1021.38 1020.87 1020.35 1019.85 1019.36 1018.88 1018.38 1017.85 1017.29 1016.66 1015.97 1015.23 1014.45 1013.67 1012.89 1012.16 1011.47 1010.85 1010.28 1009.75
1021.62 1021.91 1022.20 1022.49 1022.77 1023.03 1023.26 1023.45 1023.59 1023.67 1023.69 1023.63 1023.49 1023.27 1022.96 1022.57 1022.11 1021.60 1021.06 1020.51 1019.97 1019.44 1018.94 1018.45 1017.95 1017.42 1016.85 1016.22 1015.51 1014.75 1013.94 1013.11 1012.29 1011.50 1010.77 1010.10 1009.49 1008.94
1021.12 1021.38 1021.64 1021.88 1022.12 1022.35 1022.56 1022.75 1022.91 1023.03 1023.10 1023.10 1023.01 1022.84 1022.56 1022.19 1021.75 1021.24 1020.69 1020.13 1019.58 1019.05 1018.54 1018.05 1017.56 1017.04 1016.47 1015.84 1015.13 1014.35 1013.52 1012.66 1011.81 1010.99 1010.22 1009.51 1008.88 1008.30
1020.58 1020.83 1021.06 1021.27 1021.47 1021.66 1021.84 1022.02 1022.18 1022.31 1022.40 1022.44 1022.40 1022.27 1022.04 1021.71 1021.30 1020.82 1020.29 1019.75 1019.22 1018.70 1018.21 1017.73 1017.24 1016.73 1016.17 1015.54 1014.83 1014.05 1013.22 1012.35 1011.48 1010.64 1009.85 1009.12 1008.47 1007.88
1020.03 1020.29 1020.51 1020.69 1020.86 1021.01 1021.15 1021.29 1021.43 1021.55 1021.65 1021.70 1021.69 1021.60 1021.43 1021.16 1020.80 1020.38 1019.90 1019.40 1018.90 1018.41 1017.94 1017.47 1017.00 1016.50 1015.95 1015.33 1014.63 1013.85 1013.03 1012.16 1011.29 1010.45 1009.65 1008.92 1008.26 1007.67
1019.50 1019.78 1020.00 1020.17 1020.31 1020.42 1020.52 1020.61 1020.71 1020.80 1020.88 1020.94 1020.95 1020.90 1020.78 1020.58 1020.29 1019.94 1019.54 1019.10 1018.65 1018.20 1017.75 1017.30 1016.84 1016.34 1015.79 1015.17 1014.48 1013.72 1012.91 1012.06 1011.21 1010.38 1009.60 1008.88 1008.23 1007.66
1019.00 1019.29 1019.53 1019.70 1019.82 1019.90 1019.95 1020.00 1020.04 1020.09 1020.15 1020.20 1020.23 1020.21 1020.15 1020.01 1019.81 1019.54 1019.22 1018.85 1018.45 1018.04 1017.62 1017.18 1016.72 1016.22 1015.67 1015.06 1014.37 1013.63 1012.83 1012.01 1011.19 1010.39 1009.64 1008.95 1008.33 1007.78
1018.51 1018.83 1019.08 1019.25 1019.37 1019.43 1019.45 1019.45 1019.45 1019.46 1019.49 1019.53 1019.56 1019.58 1019.56 1019.50 1019.37 1019.18 1018.93 1018.63 1018.29 1017.92 1017.52 1017.09 1016.63 1016.12 1015.57 1014.95 1014.27 1013.54 1012.78 1011.99 1011.21 1010.45 1009.73 1009.08 1008.50 1007.98
1018.02 1018.35 1018.62 1018.81 1018.93 1018.97 1018.97 1018.95 1018.92 1018.90 1018.91 1018.94 1018.98 1019.02 1019.04 1019.03 1018.97 1018.85 1018.67 1018.43 1018.13 1017.79 1017.41 1016.98 1016.52 1016.01 1015.45 1014.84 1014.17 1013.47 1012.73 1011.98 1011.24 1010.53 1009.86 1009.25 1008.71 1008.21
1017.50 1017.85 1018.13 1018.33 1018.46 1018.51 1018.51 1018.48 1018.44 1018.41 1018.40 1018.42 1018.47 1018.53 1018.58 1018.61 1018.60 1018.53 1018.40 1018.20 1017.95 1017.63 1017.26 1016.84 1016.38 1015.87 1015.32 1014.72 1014.08 1013.41 1012.71 1012.01 1011.32 1010.65 1010.03 1009.46 1008.94 1008.48
1016.94 1017.29 1017.58 1017.80 1017.95 1018.02 1018.03 1018.01 1017.98 1017.95 1017.94 1017.96 1018.01 1018.09 1018.16 1018.21 1018.23 1018.20 1018.10 1017.94 1017.71 1017.41 1017.06 1016.66 1016.21 1015.72 1015.19 1014.62 1014.01 1013.38 1012.73 1012.08 1011.44 1010.82 1010.24 1009.70 1009.21 1008.75
1016.35 1016.69 1016.99 1017.22 1017.39 1017.49 1017.54 1017.54 1017.53 1017.52 1017.52 1017.55 1017.61 1017.69 1017.77 1017.83 1017.86 1017.84 1017.76 1017.62 1017.41 1017.14 1016.81 1016.44 1016.02 1015.57 1015.08 1014.55 1013.99 1013.41 1012.81 1012.21 1011.61 1011.03 1010.48 1009.97 1009.48 1009.03
1015.74 1016.07 1016.37 1016.62 1016.81 1016.95 1017.03 1017.07 1017.09 1017.10 1017.13 1017.17 1017.24 1017.31 1017.39 1017.45 1017.48 1017.46 1017.39 1017.26 1017.07 1016.82 1016.53 1016.20 1015.83 1015.43 1014.99 1014.52 1014.02 1013.49 1012.94 1012.38 1011.82 1011.27 1010.74 1010.23 1009.74 1009.28
1015.17 1015.48 1015.77 1016.02 1016.24 1016.40 1016.51 1016.59 1016.65 1016.70 1016.75 1016.81 1016.88 1016.95 1017.02 1017.07 1017.09 1017.06 1016.99 1016.87 1016.70 1016.49 1016.24 1015.96 1015.64 1015.30 1014.92 1014.52 1014.07 1013.60 1013.09 1012.57 1012.03 1011.49 1010.96 1010.44 1009.94 1009.46
1014.66 1014.94 1015.21 1015.46 1015.68 1015.86 1016.01 1016.12 1016.21 1016.29 1016.37 1016.44 1016.52 1016.59 1016.65 1016.69 1016.70 1016.67 1016.60 1016.49 1016.34 1016.16 1015.95 1015.72 1015.47 1015.18 1014.87 1014.52 1014.13 1013.69 1013.22 1012.71 1012.18 1011.63 1011.09 1010.55 1010.03 1009.52
1014.25 1014.49 1014.73 1014.96 1015.17 1015.35 1015.51 1015.64 1015.76 1015.87 1015.97 1016.06 1016.15 1016.22 1016.28 1016.31 1016.31 1016.28 1016.21 1016.12 1015.99 1015.85 1015.69 1015.50 1015.30 1015.07 1014.81 1014.50 1014.14 1013.73 1013.26 1012.76 1012.22 1011.65 1011.09 1010.53 1009.97 1009.43
1013.95 1014.14 1014.33 1014.52 1014.70 1014.86 1015.02 1015.16 1015.29 1015.41 1015.53 1015.64 1015.74 1015.83 1015.89 1015.92 1015.93 1015.90 1015.85 1015.77 1015.67 1015.56 1015.43 1015.29 1015.13 1014.94 1014.71 1014.43 1014.09 1013.68 1013.21 1012.70 1012.14 1011.55 1010.95 1010.36 1009.78 1009.21
1013.76 1013.87 1014.00 1014.13 1014.26 1014.39 1014.52 1014.65 1014.78 1014.92 1015.05 1015.18 1015.30 1015.40 1015.48 1015.53 1015.54 1015.53 1015.50 1015.44 1015.37 1015.29 1015.19 1015.08 1014.95 1014.79 1014.57 1014.30 1013.97 1013.56 1013.08 1012.54 1011.96 1011.35 1010.73 1010.11 1009.51 1008.92
1013.65 1013.68 1013.73 1013.78 1013.84 1013.92 1014.01 1014.12 1014.24 1014.38 1014.53 1014.67 1014.81 1014.93 1015.03 1015.11 1015.15 1015.16 1015.15 1015.12 1015.08 1015.02 1014.96 1014.87 1014.76 1014.61 1014.41 1014.14 1013.81 1013.39 1012.91 1012.36 1011.77 1011.14 1010.51 1009.88 1009.25 1008.65
1013.60 1013.54 1013.49 1013.46 1013.45 1013.46 1013.50 1013.58 1013.68 1013.82 1013.97 1014.13 1014.29 1014.44 1014.57 1014.67 1014.74 1014.79 1014.81 1014.81 1014.79 1014.77 1014.72 1014.66 1014.56 1014.43 1014.24 1013.98 1013.65 1013.24 1012.76 1012.22 1011.63 1011.01 1010.38 1009.75 1009.13 1008.52
1013.58 1013.43 1013.29 1013.17 1013.08 1013.03 1013.02 1013.06 1013.14 1013.27 1013.42 1013.60 1013.77 1013.95 1014.10 1014.23 1014.33 1014.41 1014.46 1014.50 1014.51 1014.51 1014.49 1014.45 1014.37 1014.26 1014.08 1013.84 1013.53 1013.15 1012.69 1012.18 1011.62 1011.04 1010.44 1009.84 1009.23 1008.62
Thickness
5512 5506 5499 5494 5487 5481 5474 5467 5459 5456 5457 5456 5452 5451 5446 5441 5437 5433 5429 5425 5422 5419 5416 5412 5409 5406 5403 5400 5398 5396 5395 5394 5394 5394 5396 5399 5402 5406
5504 5498 5492 5486 5480 5473 5466 5459 5453 5447 5445 5447 5442 5439 5434 5429 5424 5420 5415 5411 5406 5402 5398 5395 5391 5387 5384 5380 5377 5375 5373 5372 5371 5372 5374 5376 5380 5383
5497 5491 5485 5479 5471 5465 5458 5451 5444 5437 5435 5439 5432 5427 5421 5415 5410 5405 5399 5394 5389 5384 5381 5377 5373 5369 5365 5361 5357 5354 5352 5351 5350 5351 5352 5354 5356 5360
5490 5483 5477 5470 5463 5456 5449 5443 5436 5429 5423 5423 5421 5414 5407 5401 5396 5390 5384 5378 5373 5369 5365 5361 5356 5351 5347 5343 5340 5336 5334 5332 5331 5331 5332 5333 5336 5338
5483 5475 5469 5461 5454 5448 5441 5434 5427 5421 5413 5408 5407 5401 5394 5387 5381 5375 5369 5363 5358 5353 5349 5344 5339 5334 5330 5326 5323 5320 5318 5316 5315 5315 5315 5316 5318 5320
5475 5467 5460 5453 5446 5439 5432 5424 5417 5409 5402 5395 5391 5386 5379 5372 5363 5358 5355 5349 5344 5338 5332 5327 5323 5319 5314 5310 5307 5305 5302 5301 5300 5301 5301 5301 5303 5305
5465 5458 5451 5444 5437 5430 5423 5414 5405 5397 5389 5382 5377 5371 5364 5355 5347 5342 5339 5336 5332 5324 5319 5313 5307 5303 5299 5295 5292 5290 5289 5289 5289 5289 5290 5290 5291 5293
5456 5449 5442 5434 5427 5421 5413 5405 5396 5386 5377 5369 5363 5356 5350 5341 5334 5328 5322 5320 5319 5313 5304 5301 5294 5291 5287 5283 5280 5280 5279 5279 5279 5280 5281 5282 5283 5285
5447 5439 5432 5424 5417 5408 5401 5393 5384 5374 5366 5358 5350 5343 5335 5329 5321 5315 5309 5304 5301 5296 5289 5289 5284 5280 5277 5273 5271 5271 5271 5271 5272 5272 5273 5275 5277 5279
5438 5430 5421 5413 5404 5396 5388 5380 5371 5362 5353 5344 5337 5330 5323 5315 5307 5302 5297 5293 5289 5282 5276 5274 5274 5271 5270 5266 5264 5264 5264 5265 5265 5266 5268 5270 5272 5274
5427 5419 5410 5401 5394 5386 5378 5369 5360 5351 5342 5334 5326 5318 5311 5303 5296 5289 5284 5278 5276 5273 5266 5261 5263 5261 5261 5260 5259 5258 5257 5258 5259 5261 5263 5265 5268 5270
5417 5407 5399 5390 5382 5373 5363 5354 5346 5339 5330 5322 5313 5304 5296 5289 5283 5276 5269 5264 5262 5260 5258 5253 5252 5250 5252 5254 5252 5251 5251 5252 5254 5256 5258 5261 5264 5266
5404 5395 5386 5378 5370 5361 5351 5341 5333 5326 5318 5309 5300 5292 5284 5277 5270 5265 5259 5255 5252 5250 5249 5246 5245 5242 5240 5245 5247 5248 5247 5248 5250 5252 5254 5257 5261 5264
5393 5384 5374 5366 5357 5348 5338 5329 5321 5312 5302 5294 5286 5279 5272 5265 5260 5256 5253 5249 5246 5244 5243 5241 5239 5237 5236 5238 5240 5244 5245 5246 5247 5249 5251 5254 5257 5260
5381 5373 5363 5354 5344 5333 5323 5315 5306 5296 5287 5280 5273 5267 5260 5255 5251 5248 5246 5243 5241 5240 5239 5238 5235 5234 5233 5234 5236 5238 5240 5244 5245 5246 5249 5251 5254 5257
5367 5358 5350 5339 5329 5319 5310 5300 5290 5282 5275 5268 5262 5256 5250 5246 5242 5240 5238 5236 5234 5234 5235 5234 5233 5232 5231 5233 5233 5236 5237 5239 5242 5245 5247 5250 5253 5255
5355 5344 5334 5323 5313 5304 5295 5287 5279 5271 5264 5257 5251 5246 5242 5239 5236 5234 5231 5229 5227 5226 5227 5230 5231 5231 5231 5231 5232 5235 5236 5238 5240 5242 5245 5249 5252 5254
5340 5328 5318 5308 5299 5291 5283 5276 5268 5261 5254 5249 5243 5238 5234 5231 5229 5227 5226 5224 5222 5222 5222 5224 5225 5227 5228 5231 5232 5233 5234 5236 5238 5241 5243 5246 5250 5254
5324 5312 5303 5294 5286 5279 5272 5265 5258 5252 5246 5240 5235 5231 5228 5225 5223 5222 5222 5221 5220 5219 5220 5221 5221 5221 5222 5223 5228 5232 5232 5234 5237 5240 5242 5244 5247 5252
5309 5298 5290 5282 5275 5268 5262 5255 5249 5244 5239 5234 5229 5225 5222 5220 5219 5218 5218 5217 5217 5218 5218 5219 5219 5219 5220 5222 5225 5229 5232 5233 5235 5238 5242 5245 5248 5253
5297 5288 5280 5272 5266 5259 5253 5248 5242 5238 5234 5229 5225 5222 5219 5217 5216 5216 5215 5217 5217 5216 5215 5217 5218 5221 5220 5220 5222 5226 5231 5234 5235 5237 5240 5243 5246 5251
5286 5278 5271 5264 5258 5252 5246 5241 5237 5233 5230 5226 5223 5220 5217 5216 5215 5214 5214 5213 5214 5214 5214 5216 5218 5218 5219 5220 5221 5224 5227 5232 5236 5239 5242 5243 5244 5247
5276 5269 5262 5256 5251 5246 5241 5236 5233 5230 5227 5223 5220 5218 5216 5215 5214 5213 5213 5213 5213 5213 5213 5214 5216 5216 5218 5219 5220 5222 5225 5229 5233 5237 5241 5244 5247 5250